User: anonymous   Login
Location: Cottbus
(51.7000°N, 14.3000°E)
Time: 23:16:03
(UTC+02:00)
Language:

ISS - Orbit

View from above orbital plane
View from above orbital plane
View from above satellite
View from above satellite

Ground track
Ground track

The orbit data is extracted from the following two-line orbital elements,

1 25544U 98067A   21262.67828704  .00001313  00000-0  32602-4 0  9990
2 25544  51.6435 235.5089 0003306  31.8917 316.6790 15.48408823303235
Epoch (UTC): 19 September 2021 16:16:44
Eccentricity: 0.0003306
inclination: 51.6435°
perigee height: 419 km
apogee height: 423 km
right ascension of ascending node: 235.5089°
argument of perigee: 31.8917°
revolutions per day: 15.48408823
mean anomaly at epoch: 316.6790°
orbit number at epoch: 30323

The dashed part of the orbit path shows where the satellite is in the earth's shadow,  

DLR